Location: Noverd
(38.0910°N, 121.6877°W)
Time: 14:28:08
(UTC+00:00)

Envisat - Pass Details

Date: 22 April 2026
Orbit: 761 x 762 km, 98.4° (Epoch: 15 May)

Event Time Altitude Azimuth Distance (km) Brightness Sun altitude
Rises 11:54:29 0° 356° (N) 3,230 6.6 -16.5°
Reaches altitude 10° 11:57:21 10° 340° (NNW) 2,300 5.6 -16.0°
Maximum altitude 12:00:53 20° 295° (WNW) 1,729 4.5 -15.4°
Enters shadow 12:02:12 18° 275° (W) 1,816 4.5 -15.2°
